Laredo, TX

1:43 PM CDT en Julio 22, 2017 (GMT -0500)
Laredo International

Tiempo Historia de KLRD - Mayo, 2017

Change the Weather History Date:

Viernes, Mayo 19, 2017

  Actual Average Record
Temperature  
Temperatura media 91 ° F 83 ° F  
Temperatura máxima 103 ° F 94 ° F 110 ° F (1902)
Temperatura mínima 79 ° F 72 ° F 54 ° F (1986)
Degree Days  
Grados día de calefacción 0 0  
Month to date heating degree days 0 0  
Since 1 July heating degree days 396 926  
Cooling Degree Days 26 18  
Month to date cooling degree days 333 310  
Year to date cooling degree days 1307 910  
Growing Degree Days 40 (Base 50)    
Moisture  
Punto de rocío 70 ° F    
Average Humidity 58    
Maximum Humidity 85    
Minimum Humidity 31    
Precipitación  
Precipitación 0.00 pul 0.08 pul 2.70 pul (1942)
Month to date precipitation T 1.52  
Year to date precipitation 4.79 5.90  
Presión al nivel del mar  
Presión al nivel del mar 29.66 pul    
Viento  
Velocidad del viento 17 mph (SE)    
Velocidad máxima del viento 22 mph    
Max Gust Speed 33 mph    
Visibilidad 9 Millas    
Eventos      
T = Trace of Precipitation, MM = Missing Value Source: NWS Daily Summary

Daily Weather History Graph

Daily Weather History Graph

Search for Another Location

Airport or City:

Trip Planner

Search our weather history database for the weather conditions in past years. The results will help you decide how hot, cold, wet, or windy it might be!

Date:

Astronomía

May. 19, 2017 Salida Puesta
Hora real 6:46 AM CDT 8:22 PM CDT
Crepúsculo civil 6:21 AM CDT 8:47 PM CDT
Crepúsculo náutico 5:50 AM CDT 9:18 PM CDT
Crepúsculo astronómico 5:18 AM CDT 9:50 PM CDT
Luna 2:29 AM CDT (5/19) 2:07 PM CDT (5/19)
Horas de luz 14h 26m
Horas de luz
13h 35m
Cuarto menguante, 43% of the Moon is Illuminated
May 19
Cuarto menguante
May 25
Nueva
Jun 1
Cuarto creciente
Jun 9
Luna llena
Jun 17
Cuarto menguante

Hourly Weather History & Observations

Hora (CDT) Temp. Índice de calor Punto de rocío Humedad Presión Visibilidad Wind Dir Velocidad del viento Velocidad de ráfagas Precip Eventos Condiciones
12:56 AM 80.1 ° F 84.2 ° F 73.0 ° F 79% 29.69 pul 10.0 mi SE 17.3 mph - N/A   Despejado
1:56 AM 80.1 ° F 84.2 ° F 73.0 ° F 79% 29.68 pul 10.0 mi SE 16.1 mph - N/A   Despejado
2:56 AM 79.0 ° F - 73.0 ° F 82% 29.66 pul 10.0 mi SE 15.0 mph - N/A   Parcialmente nublado
3:13 AM 78.8 ° F - 73.4 ° F 83% 29.67 pul 9.0 mi SE 16.1 mph - N/A   Muy nublado
3:56 AM 79.0 ° F - 73.0 ° F 82% 29.66 pul 8.0 mi SE 15.0 mph - N/A   Nublado
4:56 AM 80.1 ° F 84.5 ° F 73.9 ° F 81% 29.65 pul 7.0 mi SE 12.7 mph - N/A   Nublado
5:56 AM 80.1 ° F 84.5 ° F 73.9 ° F 81% 29.66 pul 6.0 mi SE 12.7 mph 19.6 mph N/A   Bruma
6:56 AM 79.0 ° F - 73.0 ° F 82% 29.68 pul 5.0 mi SE 13.8 mph - N/A   Bruma
7:56 AM 80.1 ° F 84.2 ° F 73.0 ° F 79% 29.69 pul 5.0 mi SSE 16.1 mph - N/A   Bruma
8:56 AM 80.1 ° F 84.2 ° F 73.0 ° F 79% 29.71 pul 8.0 mi SE 16.1 mph 23.0 mph N/A   Nublado
9:56 AM 84.9 ° F 90.7 ° F 72.0 ° F 65% 29.71 pul 10.0 mi SSE 16.1 mph 24.2 mph N/A   Nublado
10:33 AM 87.8 ° F 92.6 ° F 69.8 ° F 55% 29.71 pul 10.0 mi SE 24.2 mph - N/A   Muy nublado
10:56 AM 90.0 ° F 94.5 ° F 69.1 ° F 50% 29.70 pul 10.0 mi Sur 20.7 mph 29.9 mph N/A   Nubes dispersas
11:56 AM 93.0 ° F 99.0 ° F 70.0 ° F 47% 29.69 pul 10.0 mi SSE 21.9 mph 29.9 mph N/A   Nubes dispersas
12:56 PM 95.0 ° F 101.3 ° F 70.0 ° F 44% 29.67 pul 10.0 mi SSE 19.6 mph 31.1 mph N/A   Parcialmente nublado
1:56 PM 99.0 ° F 105.5 ° F 69.1 ° F 38% 29.65 pul 10.0 mi Sur 19.6 mph 28.8 mph N/A   Despejado
2:56 PM 100.0 ° F 104.2 ° F 66.0 ° F 33% 29.63 pul 10.0 mi Sur 21.9 mph 25.3 mph N/A   Despejado
3:56 PM 100.9 ° F 106.0 ° F 66.9 ° F 33% 29.61 pul 10.0 mi SSE 12.7 mph 21.9 mph N/A   Despejado
4:56 PM 102.0 ° F 107.3 ° F 66.9 ° F 32% 29.58 pul 10.0 mi SE 17.3 mph 26.5 mph N/A   Despejado
5:56 PM 102.0 ° F 106.6 ° F 66.0 ° F 31% 29.58 pul 10.0 mi SE 12.7 mph 23.0 mph N/A   Despejado
6:56 PM 99.0 ° F 104.2 ° F 68.0 ° F 36% 29.60 pul 10.0 mi ESE 19.6 mph - N/A   Despejado
7:56 PM 95.0 ° F 97.9 ° F 66.0 ° F 38% 29.61 pul 10.0 mi SE 20.7 mph - N/A   Despejado
8:56 PM 91.0 ° F 93.8 ° F 66.0 ° F 44% 29.64 pul 10.0 mi SE 21.9 mph 28.8 mph N/A   Despejado
9:56 PM 88.0 ° F 88.7 ° F 63.0 ° F 43% 29.67 pul 10.0 mi SSE 16.1 mph 25.3 mph N/A   Despejado
10:56 PM 86.0 ° F 88.2 ° F 66.0 ° F 51% 29.70 pul 10.0 mi SE 12.7 mph - N/A   Despejado
11:56 PM 84.0 ° F 87.0 ° F 68.0 ° F 58% 29.71 pul 10.0 mi SE 15.0 mph - N/A   Despejado